FW6321 Weather Reports


Display with metric or nautical units.
time (UTC)temp
F
wind
direction
speed
MPH
gust
MPH
rain 1hr
in
rain 24hr
in
rain mn
in
humidity
%
barometer
mb
20260504181304 59 13 8.0 16.0 0.00 0.20 0.18 93 1013.6
20260504180804 59 330 8.0 15.0 0.00 0.20 0.18 93 1013.5
20260504180304 59 343 7.0 13.0 0.00 0.20 0.18 94 1013.5
20260504175803 59 335 7.0 13.0 0.00 0.20 0.18 94 1013.4
20260504175304 60 23 6.0 13.0 0.00 0.20 0.18 94 1013.5
20260504174804 60 353 6.0 11.0 0.00 0.20 0.18 94 1013.5
20260504174307 60 359 6.0 11.0 0.00 0.20 0.18 94 1013.5
20260504173804 60 325 6.0 14.0 0.00 0.20 0.18 94 1013.6
20260504173306 60 359 7.0 14.0 0.00 0.21 0.18 94 1013.5
20260504172804 60 349 8.0 13.0 0.00 0.21 0.18 94 1013.5
20260504172303 60 335 7.0 13.0 0.00 0.21 0.18 94 1013.6
20260504171803 60 320 6.0 11.0 0.00 0.21 0.18 93 1013.5
20260504171301 60 293 5.0 10.0 0.00 0.21 0.18 93 1013.5
20260504170801 60 330 5.0 11.0 0.00 0.21 0.18 93 1013.4
20260504170316 60 314 5.0 11.0 0.00 0.21 0.18 93 1013.5
20260504160301 61 310 2.0 5.0 0.03 0.25 0.18 92 1013.5
20260504150746 62 263 2.0 4.0 0.02 0.23 0.16 92 1013.5
20260504150245 62 294 2.0 4.0 0.01 0.21 0.14 92 1013.5
20260504141243 62 29 3.0 4.0 0.13 0.29 0.13 93 1013.8
20260504140743 62 34 3.0 6.0 0.13 0.30 0.13 93 1013.8
20260504140240 62 51 2.0 6.0 0.13 0.30 0.13 93 1013.8
20260504120311 65 75 3.0 7.0 0.00 0.19 0.00 86 1014.1
20260504110318 63 354 1.0 4.0 0.00 0.24 0.00 89 1014.4
20260504100215 60 69 2.0 3.0 0.00 0.31 0.00 98 1014.6
20260504080702 58 118 0.0 2.0 0.00 0.43 0.00 99 1014.3
20260504080236 57 118 1.0 3.0 0.00 0.43 0.00 99 1014.3
20260504070156 56 178 1.0 5.0 0.00 0.43 0.00 99 1013.7
20260504060223 55 172 1.0 2.0 0.00 0.43 0.00 99 1013.5
20260504050634 54 127 1.0 3.0 0.00 0.43 0.00 99 1012.6
20260504050209 54 127 1.0 4.0 0.00 0.43 0.00 99 1012.6
20260504045131 54 139 1.0 2.0 0.00 0.43 0.00 99 1012.5
20260504044632 54 139 1.0 2.0 0.00 0.43 0.00 98 1012.6
20260504044135 54 139 0.0 2.0 0.00 0.43 0.00 98 1012.6
20260504043635 54 139 0.0 2.0 0.00 0.43 0.00 98 1012.5
20260504043136 54 139 0.0 2.0 0.00 0.43 0.00 98 1012.6
20260504042640 54 139 0.0 2.0 0.00 0.43 0.00 98 1012.6
20260504042131 54 139 0.0 1.0 0.00 0.43 0.00 98 1012.7
20260504041633 54 139 0.0 2.0 0.00 0.43 0.00 98 1012.7
20260504041131 54 139 1.0 2.0 0.00 0.43 0.00 98 1012.7
20260504040701 54 139 1.0 4.0 0.00 0.43 0.00 98 1012.8
20260504035657 54 139 1.0 2.0 0.00 0.43 0.00 98 1012.7
20260504034637 54 139 0.0 2.0 0.00 0.43 0.00 98 1012.7
20260504034209 54 139 1.0 2.0 0.00 0.43 0.00 98 1012.8
20260504033135 54 139 1.0 2.0 0.00 0.43 0.00 98 1012.8
20260504032632 54 139 0.0 2.0 0.00 0.43 0.00 98 1012.8
20260504032134 54 139 0.0 1.0 0.00 0.43 0.00 98 1012.9
20260504031656 54 139 0.0 1.0 0.00 0.43 0.00 98 1012.9
20260504030632 53 139 0.0 2.0 0.00 0.43 0.00 98 1013.0
20260504030132 53 139 0.0 2.0 0.00 0.43 0.00 98 1012.9
20260504025630 53 139 0.0 1.0 0.00 0.43 0.00 98 1012.9
20260504025130 53 139 0.0 1.0 0.00 0.43 0.00 98 1012.9
20260504024630 53 139 0.0 1.0 0.00 0.43 0.00 98 1012.9
20260504024130 53 139 0.0 2.0 0.00 0.43 0.00 98 1012.9
20260504023632 53 139 1.0 2.0 0.00 0.43 0.00 98 1012.7
20260504023129 53 139 1.0 2.0 0.00 0.43 0.00 98 1012.7
20260504022632 53 139 1.0 2.0 0.00 0.43 0.00 98 1012.6
20260504022131 52 139 0.0 2.0 0.00 0.43 0.00 98 1012.6
20260504021631 52 139 0.0 1.0 0.00 0.43 0.00 98 1012.6
20260504021141 52 139 1.0 2.0 0.00 0.43 0.00 98 1012.6
20260504020631 52 139 1.0 2.0 0.00 0.43 0.00 98 1012.6
20260504020129 52 139 1.0 2.0 0.00 0.43 0.00 97 1012.6
20260504015628 53 152 1.0 2.0 0.00 0.43 0.00 97 1012.5
20260504015204 53 152 1.0 2.0 0.00 0.43 0.00 97 1012.5
20260504014206 53 152 0.0 2.0 0.00 0.43 0.00 97 1012.6
20260504013136 53 152 0.0 2.0 0.00 0.43 0.00 98 1012.7
20260504012640 53 152 0.0 0.0 0.00 0.43 0.00 98 1012.6
20260504012130 52 152 0.0 1.0 0.00 0.43 0.00 97 1012.6
20260504011629 53 152 0.0 1.0 0.00 0.43 0.00 97 1012.6
20260504011130 53 152 0.0 1.0 0.00 0.43 0.00 97 1012.5
20260504010801 53 152 0.0 1.0 0.00 0.43 0.00 97 1012.4
20260504004628 53 184 1.0 1.0 0.00 0.43 0.00 97 1012.5
20260504004126 53 184 0.0 1.0 0.00 0.43 0.00 97 1012.4
20260504003642 54 185 0.0 1.0 0.00 0.43 0.00 97 1012.3
20260504002701 54 184 1.0 2.0 0.00 0.43 0.00 97 1012.2
20260504001615 54 184 0.0 2.0 0.00 0.43 0.00 97 1012.3
20260504001110 54 184 1.0 2.0 0.00 0.43 0.00 97 1012.4
20260504000611 54 184 1.0 2.0 0.00 0.43 0.00 97 1012.4
20260504000141 55 181 1.0 2.0 0.00 0.43 0.00 97 1012.5
20260503235146 55 181 0.0 2.0 0.00 0.43 0.00 97 1012.4
20260503234829 55 181 1.0 3.0 0.00 0.43 0.00 97 1012.5
20260503231604 56 181 3.0 6.0 0.00 0.43 0.00 97 1012.6
20260503231104 56 179 4.0 7.0 0.00 0.43 0.00 97 1012.8
20260503230613 56 148 4.0 7.0 0.00 0.43 0.00 97 1012.7
20260503230135 56 172 4.0 6.0 0.00 0.43 0.00 97 1012.7
20260503225100 55 186 2.0 6.0 0.00 0.43 0.00 97 1012.8
20260503224600 55 172 2.0 6.0 0.00 0.43 0.00 97 1012.7
20260503224120 55 166 1.0 4.0 0.00 0.43 0.00 97 1012.7
20260503223126 55 207 0.0 2.0 0.00 0.43 0.00 96 1012.6
20260503222126 55 207 0.0 2.0 0.00 0.43 0.00 96 1012.7
20260503221055 55 207 2.0 4.0 0.00 0.43 0.00 97 1012.8
20260503220553 55 202 2.0 3.0 0.00 0.43 0.00 96 1012.7
20260503220051 55 205 1.0 3.0 0.00 0.43 0.00 96 1012.6
20260503215550 55 183 1.0 3.0 0.00 0.43 0.43 96 1012.6
20260503215049 56 193 1.0 2.0 0.00 0.43 0.43 96 1012.6
20260503214621 56 187 1.0 2.0 0.00 0.43 0.43 96 1012.5
20260503213551 56 187 2.0 3.0 0.00 0.43 0.43 96 1012.5
20260503213046 56 177 2.0 5.0 0.00 0.44 0.43 96 1012.6
20260503212547 56 192 2.0 5.0 0.00 0.46 0.43 96 1012.5
20260503212049 56 181 2.0 5.0 0.00 0.49 0.43 96 1012.5
20260503211548 56 167 2.0 5.0 0.00 0.50 0.43 96 1012.6
20260503211047 56 184 2.0 5.0 0.00 0.51 0.43 96 1012.6
20260503210543 56 177 1.0 4.0 0.00 0.53 0.43 96 1012.5
20260503210046 56 183 2.0 4.0 0.00 0.56 0.43 96 1012.5
20260503205544 57 210 2.0 4.0 0.00 0.61 0.43 96 1012.5
20260503205042 57 206 3.0 5.0 0.00 0.67 0.43 96 1012.4
20260503204542 57 176 3.0 5.0 0.00 0.84 0.43 96 1012.3
20260503204043 57 166 3.0 5.0 0.00 1.08 0.43 96 1012.4
20260503203656 57 174 3.0 6.0 0.00 1.09 0.43 96 1012.4
20260503202044 57 163 3.0 7.0 0.00 1.09 0.43 96 1012.6
20260503201542 57 156 3.0 7.0 0.00 1.09 0.43 96 1012.6
20260503201041 57 166 4.0 8.0 0.00 1.09 0.43 96 1012.5
20260503200543 57 154 3.0 8.0 0.00 1.09 0.43 96 1012.4
20260503200042 57 169 3.0 5.0 0.00 1.09 0.43 96 1012.4
20260503195542 57 171 3.0 5.0 0.00 1.09 0.43 96 1012.5
20260503195044 57 172 3.0 5.0 0.00 1.09 0.43 96 1012.3
20260503194542 57 180 3.0 6.0 0.00 1.09 0.43 96 1012.4
20260503194043 57 168 3.0 6.0 0.01 1.09 0.43 96 1012.2
20260503193542 57 155 4.0 7.0 0.01 1.09 0.43 96 1012.1
20260503193043 57 162 4.0 8.0 0.02 1.09 0.43 96 1012.1
20260503192546 57 204 5.0 8.0 0.02 1.09 0.43 96 1012.0
20260503192042 57 171 5.0 9.0 0.02 1.09 0.43 96 1011.9
20260503191614 58 182 4.0 9.0 0.02 1.09 0.43 95 1011.8
20260503190545 58 178 5.0 9.0 0.02 1.09 0.43 95 1011.7
20260503190047 58 163 5.0 9.0 0.02 1.09 0.43 95 1011.7
20260503185542 58 169 4.0 8.0 0.02 1.09 0.43 95 1011.7
20260503185041 58 166 2.0 7.0 0.02 1.09 0.43 95 1011.7
20260503184542 59 162 2.0 5.0 0.02 1.09 0.43 95 1011.4
20260503184041 59 170 3.0 9.0 0.02 1.09 0.43 95 1011.4
20260503183542 59 150 4.0 9.0 0.02 1.09 0.43 95 1011.5
20260503183127 59 171 4.0 8.0 0.02 1.08 0.42 95 1011.5
20260503182038 59 187 4.0 8.0 0.02 1.08 0.42 95 1011.5
20260503181537 60 183 3.0 8.0 0.02 1.08 0.42 95 1011.5